Погода в Уайт Плейнс

США     41°01′25″N   73°45′48″W
темп.,
°C
ветер,
м/с
пор.,
м/с
влажн.,
%
обл.,
%
осадки,
мм/ч
давл.,
гПа
погр.,
м
20 апреля, вт
вт2023:00+12сз12645 0.0 101134
02:00+11зюз22705 0.0 101244
05:00+10зюз24700 0.0 101287
08:00+12зюз411627 0.0 1013415
11:00+17з59447 0.0 10141264
14:00+20з6113629 0.0 10142055
17:00+19з693736 0.0 10142041
20:00+16сз38495 0.0 1014776
21 апреля, ср
ср2123:00+15с0055100 0.0 1015167
02:00+14юв256297 0.0 1013293
05:00+12ю41272100 0.0 1011649
08:00+12ю41175100 0.1 1009614
11:00+14ю5136993 0.4 10061002
14:00+16ю8156485 0.6 10021162
17:00+8зсз7137899 4.1 1002680
20:00+5сз915625 4.1 10051065
22 апреля, чт
чт2223:00+2зсз715575 0.0 10071184
02:00+2зсз6146131 0.0 10081183
05:00+1зсз714575 0.0 10091100
08:00+2зсз713525 0.0 10111281
11:00+6зсз81432100 0.0 10112575
14:00+8зсз8143393 0.0 10102768
17:00+9зсз8163398 0.0 10112692
20:00+6зсз615432 0.0 10131977
23 апреля, пт
пт2323:00+5з6134685 0.0 10141536
02:00+4з6145186 0.0 10141209
05:00+4з61556100 0.0 10131122
08:00+6з6155339 0.0 10141123
11:00+11зсз71443100 0.0 10142049
14:00+12сз71448100 0.0 10141939
17:00+14зсз5124266 0.0 10132130
20:00+13зсз410523 0.0 10151204
24 апреля, сб
сб2423:00+11з412611 0.0 1016717
02:00+9зсз412614 0.0 1017528
05:00+8зсз311585 0.0 1017405
08:00+10з384889 0.0 1018331
11:00+16зсз35350 0.0 10181461
14:00+19з352760 0.0 10172212
17:00+19ююз5528100 0.0 10152274
20:00+16ююз4740100 0.0 1015394